Terminal Aerodrome Forecast
Issued by NWS Sterling, VA

Current Version | Previous Version | Graphics & Text | Print | Product List | Glossary On
Versions: 1 2 3 4 5 6 7 8 9 10 11 12 13 14 15 16 17 18 19 20 21 22
000
FTUS41 KLWX 192100 AAA
TAFIAD
TAF AMD
KIAD 192105Z 1921/2024 14006KT P6SM FEW060 BKN090
     FM200600 VRB03KT 5SM BR SCT008 BKN015
     FM201200 VRB03KT P6SM SCT008 BKN015
     FM201600 18006KT P6SM SCT050=

USA.gov is the U.S. government's official web portal to all federal, state and local government web resources and services.